Orbital Elements at Epoch 2459000.5 (2020-May-31.0) TDB
Reference: JPL 18 (heliocentric ecliptic J2000)
Element | Value | Uncertainty (1-sigma) | Units |
e | .0555537537840636 | 4.8092e-08 | |
a | 1.892364111294963 | 8.0445e-09 | au |
q | 1.787236181386284 | 9.2892e-08 | au |
i | 17.67323618894339 | 4.982e-06 | deg |
node | 242.7224454693305 | 1.6283e-05 | deg |
peri | 87.95520552574615 | 7.5851e-05 | deg |
M | 325.2328464146296 | 6.7405e-05 | deg |
tp | 2459092.327363823878 (2020-Aug-30.82736382) | 0.00017774 | TDB |
period | 950.835704609035 2.60 | 6.063e-06 1.66e-08 | d yr |
n | .378614305557683 | 2.4142e-09 | deg/d |
Q | 1.997492041203642 | 8.4914e-09 | au |
|
| | Orbit Determination Parameters
Additional Information
|